• In Spain
  • List of Countries
  • For 7 days
  • Water Temperature
  • Satellite Maps
  • Weather Map
  • Weather Widgets
  • user-avatar
    Login

    Hourly Weather Tebriz

    Today, 19 September, Wednesday

    Time Temperature Precipitation Wind Pressure Humidity
    00:00 +19°C° 0 mm 3 mps 647 mmHg 69%
    01:00 +18°C° 0 mm 3 mps 647 mmHg 71%
    02:00 +18°C° 0 mm 3 mps 647 mmHg 73%
    03:00 +18°C° 0 mm 2 mps 646 mmHg 75%
    04:00 +17°C° 0.1 mm 2 mps 647 mmHg 76%
    05:00 +17°C° 0.1 mm 2 mps 647 mmHg 77%
    06:00 +17°C° 0.1 mm 2 mps 647 mmHg 77%
    07:00 +18°C° 0 mm 2 mps 647 mmHg 70%
    08:00 +20°C° 0 mm 3 mps 648 mmHg 62%
    09:00 +22°C° 0 mm 3 mps 649 mmHg 54%
    10:00 +24°C° 0.2 mm 3 mps 649 mmHg 49%
    11:00 +25°C° 0.2 mm 2 mps 649 mmHg 44%
    12:00 +26°C° 0.2 mm 2 mps 649 mmHg 40%
    13:00 +26°C° 0.5 mm 2 mps 648 mmHg 38%
    14:00 +27°C° 0.5 mm 2 mps 648 mmHg 36%
    15:00 +27°C° 0.5 mm 2 mps 648 mmHg 34%
    16:00 +26°C° 0.7 mm 3 mps 647 mmHg 38%
    17:00 +25°C° 0.7 mm 3 mps 647 mmHg 43%
    18:00 +23°C° 0.7 mm 4 mps 647 mmHg 47%
    19:00 +22°C° 0.2 mm 4 mps 647 mmHg 53%
    20:00 +20°C° 0.2 mm 4 mps 647 mmHg 59%
    21:00 +19°C° 0.2 mm 4 mps 647 mmHg 65%
    22:00 +19°C° 0 mm 4 mps 647 mmHg 67%
    23:00 +18°C° 0 mm 4 mps 647 mmHg 68%

    Tomorrow, 20 September, Thursday

    Time Temperature Precipitation Wind Pressure Humidity
    00:00 +18°C° 0 mm 4 mps 647 mmHg 70%
    01:00 +17°C° 0 mm 4 mps 647 mmHg 71%
    02:00 +17°C° 0 mm 3 mps 647 mmHg 72%
    03:00 +16°C° 0 mm 3 mps 647 mmHg 73%
    04:00 +16°C° 0 mm 3 mps 647 mmHg 74%
    05:00 +16°C° 0 mm 3 mps 647 mmHg 75%
    06:00 +16°C° 0 mm 3 mps 648 mmHg 76%
    07:00 +17°C° 0 mm 3 mps 648 mmHg 69%
    08:00 +18°C° 0 mm 3 mps 649 mmHg 62%
    09:00 +20°C° 0 mm 4 mps 649 mmHg 55%
    10:00 +21°C° 0 mm 4 mps 649 mmHg 51%
    11:00 +22°C° 0 mm 3 mps 649 mmHg 47%
    12:00 +24°C° 0 mm 3 mps 649 mmHg 44%
    13:00 +24°C° 0 mm 3 mps 649 mmHg 43%
    14:00 +25°C° 0 mm 3 mps 649 mmHg 42%
    15:00 +25°C° 0 mm 3 mps 649 mmHg 41%
    16:00 +23°C° 0 mm 4 mps 648 mmHg 45%
    17:00 +22°C° 0 mm 4 mps 648 mmHg 49%
    18:00 +21°C° 0 mm 5 mps 648 mmHg 53%
    19:00 +20°C° 0 mm 4 mps 648 mmHg 57%
    20:00 +19°C° 0 mm 4 mps 648 mmHg 61%
    21:00 +18°C° 0 mm 4 mps 648 mmHg 65%
    22:00 +17°C° 0 mm 3 mps 648 mmHg 66%
    23:00 +17°C° 0 mm 3 mps 648 mmHg 68%

    Day after tomorrow, 21 September, Friday

    Time Temperature Precipitation Wind Pressure Humidity
    00:00 +17°C° 0 mm 3 mps 648 mmHg 69%
    01:00 +16°C° 0 mm 3 mps 647 mmHg 70%
    02:00 +16°C° 0 mm 2 mps 647 mmHg 71%
    03:00 +16°C° 0 mm 2 mps 647 mmHg 72%
    04:00 +16°C° 0 mm 2 mps 647 mmHg 73%
    05:00 +15°C° 0 mm 2 mps 647 mmHg 73%
    06:00 +15°C° 0 mm 2 mps 647 mmHg 74%
    07:00 +17°C° 0 mm 2 mps 648 mmHg 66%
    08:00 +18°C° 0 mm 2 mps 648 mmHg 59%
    09:00 +20°C° 0 mm 2 mps 649 mmHg 51%
    10:00 +23°C° 0 mm 2 mps 649 mmHg 47%
    11:00 +24°C° 0 mm 1 mps 649 mmHg 42%
    12:00 +25°C° 0 mm 1 mps 649 mmHg 37%
    13:00 +26°C° 0 mm 1 mps 648 mmHg 34%
    14:00 +26°C° 0 mm 1 mps 648 mmHg 32%
    15:00 +27°C° 0 mm 1 mps 648 mmHg 30%
    16:00 +26°C° 0 mm 1 mps 648 mmHg 31%
    17:00 +25°C° 0 mm 1 mps 648 mmHg 32%
    18:00 +24°C° 0 mm 2 mps 647 mmHg 33%
    19:00 +24°C° 0 mm 2 mps 648 mmHg 38%
    20:00 +23°C° 0 mm 2 mps 648 mmHg 42%
    21:00 +21°C° 0 mm 3 mps 648 mmHg 47%
    22:00 +20°C° 0 mm 3 mps 648 mmHg 51%
    23:00 +19°C° 0 mm 3 mps 648 mmHg 56%

    22 September, Saturday

    Time Temperature Precipitation Wind Pressure Humidity
    00:00 +18°C° 0 mm 2 mps 648 mmHg 60%
    01:00 +18°C° 0 mm 2 mps 648 mmHg 63%
    02:00 +18°C° 0 mm 2 mps 647 mmHg 65%
    03:00 +17°C° 0 mm 2 mps 647 mmHg 68%
    04:00 +17°C° 0 mm 2 mps 647 mmHg 69%
    05:00 +17°C° 0 mm 2 mps 648 mmHg 71%
    06:00 +16°C° 0 mm 2 mps 648 mmHg 72%
    07:00 +18°C° 0 mm 2 mps 648 mmHg 64%
    08:00 +20°C° 0 mm 2 mps 649 mmHg 56%
    09:00 +23°C° 0 mm 2 mps 649 mmHg 48%
    10:00 +24°C° 0 mm 2 mps 649 mmHg 41%
    11:00 +25°C° 0 mm 1 mps 649 mmHg 35%
    12:00 +27°C° 0 mm 1 mps 649 mmHg 29%
    13:00 +27°C° 0 mm 1 mps 649 mmHg 27%
    14:00 +28°C° 0 mm 1 mps 649 mmHg 24%
    15:00 +28°C° 0 mm 1 mps 648 mmHg 21%
    16:00 +27°C° 0.1 mm 2 mps 648 mmHg 24%
    17:00 +26°C° 0.1 mm 2 mps 648 mmHg 27%
    18:00 +25°C° 0.1 mm 2 mps 648 mmHg 30%
    19:00 +25°C° 0 mm 3 mps 648 mmHg 35%
    20:00 +24°C° 0 mm 3 mps 648 mmHg 40%
    21:00 +22°C° 0 mm 3 mps 648 mmHg 45%
    22:00 +21°C° 0.4 mm 3 mps 648 mmHg 50%
    23:00 +20°C° 0.4 mm 3 mps 647 mmHg 55%

    23 September, Sunday

    Time Temperature Precipitation Wind Pressure Humidity
    00:00 +20°C° 0.4 mm 3 mps 647 mmHg 59%
    01:00 +19°C° 0 mm 3 mps 647 mmHg 63%
    02:00 +19°C° 0 mm 3 mps 647 mmHg 66%
    03:00 +18°C° 0 mm 3 mps 647 mmHg 70%
    04:00 +18°C° 0 mm 2 mps 647 mmHg 72%
    05:00 +17°C° 0 mm 2 mps 647 mmHg 73%
    06:00 +17°C° 0 mm 2 mps 647 mmHg 75%
    07:00 +19°C° 0 mm 2 mps 647 mmHg 67%
    08:00 +20°C° 0 mm 2 mps 647 mmHg 58%
    09:00 +23°C° 0 mm 2 mps 648 mmHg 50%
    10:00 +24°C° 0 mm 2 mps 648 mmHg 45%
    11:00 +26°C° 0 mm 2 mps 648 mmHg 39%
    12:00 +27°C° 0 mm 1 mps 648 mmHg 34%
    13:00 +27°C° 0 mm 1 mps 647 mmHg 32%
    14:00 +28°C° 0 mm 1 mps 647 mmHg 30%
    15:00 +28°C° 0 mm 2 mps 647 mmHg 28%
    16:00 +27°C° 0 mm 2 mps 647 mmHg 31%
    17:00 +26°C° 0 mm 3 mps 646 mmHg 34%
    18:00 +25°C° 0 mm 3 mps 646 mmHg 37%
    19:00 +24°C° 0.2 mm 3 mps 646 mmHg 44%
    20:00 +22°C° 0.2 mm 3 mps 646 mmHg 51%
    21:00 +21°C° 0.2 mm 3 mps 646 mmHg 58%
    22:00 +20°C° 0 mm 3 mps 646 mmHg 61%
    23:00 +19°C° 0 mm 3 mps 646 mmHg 64%

    24 September, Monday

    Time Temperature Precipitation Wind Pressure Humidity
    00:00 +19°C° 0 mm 2 mps 645 mmHg 67%
    01:00 +18°C° 0 mm 2 mps 645 mmHg 68%
    02:00 +18°C° 0 mm 2 mps 645 mmHg 69%
    03:00 +18°C° 0 mm 2 mps 645 mmHg 70%
    04:00 +17°C° 0 mm 2 mps 645 mmHg 71%
    05:00 +17°C° 0 mm 2 mps 645 mmHg 72%
    06:00 +17°C° 0 mm 2 mps 645 mmHg 73%
    07:00 +18°C° 0 mm 2 mps 646 mmHg 64%
    08:00 +20°C° 0 mm 2 mps 647 mmHg 56%
    09:00 +23°C° 0 mm 2 mps 647 mmHg 47%
    10:00 +24°C° 0.1 mm 2 mps 647 mmHg 42%
    11:00 +25°C° 0.1 mm 2 mps 647 mmHg 38%
    12:00 +26°C° 0.1 mm 2 mps 647 mmHg 33%
    13:00 +26°C° 0.1 mm 2 mps 647 mmHg 31%
    14:00 +26°C° 0.1 mm 2 mps 647 mmHg 30%
    15:00 +27°C° 0.1 mm 2 mps 647 mmHg 28%
    16:00 +26°C° 0.1 mm 3 mps 647 mmHg 32%
    17:00 +25°C° 0.1 mm 3 mps 647 mmHg 35%
    18:00 +23°C° 0.1 mm 4 mps 647 mmHg 38%
    19:00 +22°C° 0 mm 4 mps 647 mmHg 42%
    20:00 +21°C° 0 mm 3 mps 647 mmHg 46%
    21:00 +20°C° 0 mm 3 mps 647 mmHg 49%
    22:00 +19°C° 0 mm 3 mps 647 mmHg 51%
    23:00 +19°C° 0 mm 3 mps 647 mmHg 53%
    Show more